CW1490 Weather Reports


Display with metric or nautical units.
time (UTC)temp
F
wind
direction
speed
MPH
gust
MPH
rain 1hr
in
rain 24hr
in
rain mn
in
humidity
%
barometer
mb
20260903072002 63 234 2.0 5.0 0.00 0.02 0.02 89 1016.2
20260903071523 63 178 2.0 5.0 0.01 0.02 0.02 89 1016.3
20260903071003 63 201 2.0 5.0 0.01 0.02 0.02 89 1016.5
20260903070503 63 178 2.0 5.0 0.01 0.02 0.02 89 1016.6
20260903070050 63 51 0.0 3.0 0.01 0.02 0.02 88 1016.7
20260903065506 63 215 1.0 3.0 0.02 0.02 0.02 88 1016.5
20260903065010 63 232 2.0 5.0 0.02 0.02 0.02 88 1016.5
20260903064518 63 221 2.0 5.0 0.02 0.02 0.02 87 1016.5
20260903064012 63 196 1.0 3.0 0.02 0.02 0.02 87 1016.6
20260903063515 63 146 1.0 7.0 0.02 0.02 0.02 87 1016.6
20260903063022 63 51 0.0 7.0 0.02 0.02 0.02 87 1016.4
20260903062510 63 238 3.0 7.0 0.02 0.02 0.02 86 1016.3
20260903062015 63 208 2.0 9.0 0.02 0.02 0.02 86 1016.3
20260903061527 64 221 4.0 10.0 0.01 0.01 0.01 85 1016.7
20260903061013 64 178 3.0 10.0 0.01 0.01 0.01 85 1016.7
20260903060505 64 198 4.0 10.0 0.01 0.01 0.01 84 1016.9
20260903060015 64 198 5.0 10.0 0.01 0.01 0.01 83 1017.1
20260903055507 65 209 3.0 7.0 0.00 0.00 0.00 83 1017.1
20260903055005 65 205 3.0 8.0 0.00 0.00 0.00 82 1017.3
20260903054536 65 227 3.0 10.0 0.00 0.00 0.00 82 1017.4
20260903054008 65 216 4.0 10.0 0.00 0.00 0.00 81 1017.6
20260903053508 65 223 6.0 10.0 0.00 0.00 0.00 80 1017.7
20260903053024 65 221 5.0 11.0 0.00 0.00 0.00 79 1017.8
20260903052512 65 210 6.0 14.0 0.00 0.00 0.00 79 1017.9
20260903052014 65 186 5.0 14.0 0.00 0.00 0.00 78 1017.9
20260903051528 65 219 4.0 7.0 0.00 0.00 0.00 78 1017.9
20260903051016 66 214 5.0 12.0 0.00 0.00 0.00 77 1017.9
20260903050513 66 219 6.0 12.0 0.00 0.00 0.00 77 1017.8
20260903050040 66 229 2.0 11.0 0.00 0.00 0.00 76 1017.8
20260903045513 66 218 7.0 11.0 0.00 0.00 0.00 76 1017.8
20260903045006 66 265 3.0 10.0 0.00 0.00 0.00 76 1017.7
20260903044514 66 193 5.0 10.0 0.00 0.00 0.00 77 1017.7
20260903044008 66 219 5.0 10.0 0.00 0.00 0.00 77 1017.8
20260903043510 66 153 3.0 7.0 0.00 0.00 0.00 77 1017.8
20260903043023 66 224 4.0 7.0 0.00 0.00 0.00 77 1017.8
20260903042511 66 214 3.0 9.0 0.00 0.00 0.00 77 1017.9
20260903042014 66 225 4.0 9.0 0.00 0.00 0.00 77 1017.9
20260903041527 66 205 4.0 13.0 0.00 0.00 0.00 77 1018.1
20260903041014 66 221 5.0 13.0 0.00 0.00 0.00 77 1018.1
20260903040514 66 227 4.0 8.0 0.00 0.00 0.00 77 1018.1
20260903040031 66 191 4.0 10.0 0.00 0.00 0.00 78 1018.2
20260903035516 67 242 4.0 10.0 0.00 0.00 0.00 78 1018.4
20260903035016 67 214 5.0 10.0 0.00 0.00 0.00 78 1018.4
20260903034528 67 194 5.0 10.0 0.00 0.00 0.00 77 1018.2
20260903034017 67 194 4.0 12.0 0.00 0.00 0.00 77 1018.1
20260903033515 67 208 5.0 12.0 0.00 0.00 0.00 78 1018.1
20260903033015 67 224 4.0 11.0 0.00 0.00 0.00 78 1018.3
20260903032510 67 146 5.0 10.0 0.00 0.00 0.00 78 1018.4
20260903032016 67 200 3.0 10.0 0.00 0.00 0.00 78 1018.4
20260903031524 67 219 3.0 10.0 0.00 0.00 0.00 78 1018.4
20260903031014 67 225 5.0 10.0 0.00 0.00 0.00 78 1018.5
20260903030513 67 229 3.0 8.0 0.00 0.00 0.00 78 1018.4
20260903030028 67 220 4.0 7.0 0.00 0.00 0.00 79 1018.6
20260903025515 67 205 3.0 11.0 0.00 0.00 0.00 79 1018.5
20260903025014 67 188 6.0 13.0 0.00 0.00 0.00 79 1018.7
20260903024533 67 247 5.0 13.0 0.00 0.00 0.00 79 1018.5
20260903024015 67 219 5.0 10.0 0.00 0.00 0.00 80 1018.7
20260903023517 67 229 4.0 11.0 0.00 0.00 0.00 80 1018.8
20260903023039 67 237 4.0 11.0 0.00 0.00 0.00 81 1018.8
20260903022518 67 232 5.0 12.0 0.00 0.00 0.00 81 1018.8
20260903022016 67 223 6.0 12.0 0.00 0.00 0.00 82 1019.0
20260903021518 67 190 4.0 9.0 0.00 0.00 0.00 83 1018.7
20260903021011 67 214 6.0 9.0 0.00 0.00 0.00 84 1018.9
20260903020515 66 207 5.0 10.0 0.00 0.00 0.00 85 1019.1
20260903020025 66 225 6.0 10.0 0.00 0.00 0.00 85 1019.2
20260903015515 67 231 5.0 8.0 0.00 0.00 0.00 86 1019.2
20260903015014 67 227 4.0 8.0 0.00 0.00 0.00 87 1019.4
20260903014528 67 214 4.0 8.0 0.00 0.00 0.00 88 1019.4
20260903014016 67 234 3.0 6.0 0.00 0.00 0.00 88 1019.5
20260903013516 67 229 2.0 7.0 0.00 0.00 0.00 88 1019.5
20260903013031 67 227 4.0 7.0 0.00 0.00 0.00 88 1019.5
20260903012518 67 212 1.0 3.0 0.00 0.00 0.00 88 1019.4
20260903012015 67 119 1.0 4.0 0.00 0.00 0.00 88 1019.5
20260903011522 67 188 1.0 4.0 0.00 0.00 0.00 88 1019.5
20260903011001 67 282 1.0 7.0 0.00 0.00 0.00 88 1019.6
20260903010515 67 221 3.0 7.0 0.00 0.00 0.00 88 1019.3
20260903010003 67 245 4.0 5.0 0.00 0.00 0.00 88 1019.0
20260903005512 67 178 3.0 5.0 0.00 0.00 0.00 87 1019.3
20260903005002 67 178 0.0 4.0 0.00 0.00 0.00 87 1019.7
20260903004505 67 334 1.0 7.0 0.00 0.00 0.00 87 1019.5
20260903004003 67 273 1.0 7.0 0.00 0.00 0.00 87 1019.3
20260903003504 67 254 2.0 7.0 0.00 0.00 0.00 88 1018.8
20260903003009 67 257 2.0 8.0 0.00 0.00 0.00 88 1018.6
20260903002503 67 224 5.0 11.0 0.00 0.00 0.00 88 1018.5
20260903002008 67 221 5.0 11.0 0.00 0.00 0.00 88 1018.4
20260903001522 67 210 5.0 10.0 0.00 0.00 0.00 88 1018.4
20260903001010 68 221 4.0 10.0 0.00 0.00 0.00 88 1018.4
20260903000516 68 231 4.0 6.0 0.00 0.00 0.00 88 1018.4
20260903000035 68 240 3.0 6.0 0.00 0.00 0.00 88 1018.8
20260902235518 68 227 2.0 5.0 0.00 0.01 0.00 87 1018.8
20260902235004 68 227 1.0 6.0 0.00 0.01 0.00 87 1019.0
20260902234504 68 242 4.0 6.0 0.00 0.01 0.00 87 1019.1
20260902234002 68 221 2.0 4.0 0.00 0.01 0.00 87 1019.1
20260902233504 68 265 1.0 3.0 0.00 0.01 0.00 86 1019.2
20260902233010 69 221 1.0 3.0 0.00 0.01 0.00 86 1019.1
20260902232503 69 334 1.0 3.0 0.00 0.01 0.00 86 1019.3
20260902232003 69 93 0.0 3.0 0.00 0.01 0.00 85 1019.4
20260902231515 69 232 0.0 3.0 0.00 0.01 0.00 85 1019.6
20260902231006 69 221 0.0 4.0 0.00 0.01 0.00 85 1019.8
20260902230511 69 247 1.0 4.0 0.00 0.02 0.00 85 1019.9
20260902230016 69 196 2.0 4.0 0.00 0.02 0.00 85 1019.9
20260902225510 69 190 1.0 7.0 0.00 0.02 0.00 85 1020.0
20260902225013 69 221 1.0 7.0 0.00 0.02 0.00 85 1020.2
20260902224524 69 207 3.0 6.0 0.00 0.02 0.00 85 1020.3
20260902224012 70 165 3.0 5.0 0.00 0.02 0.00 85 1020.4
20260902223502 70 178 1.0 3.0 0.00 0.02 0.00 85 1020.5
20260902223009 70 334 1.0 2.0 0.00 0.02 0.00 84 1020.5
20260902222502 70 161 0.0 4.0 0.00 0.02 0.00 84 1020.5
20260902222004 70 238 1.0 4.0 0.00 0.02 0.00 84 1020.5
20260902221508 70 137 2.0 4.0 0.00 0.02 0.00 84 1020.4
20260902221003 70 178 1.0 4.0 0.00 0.02 0.00 83 1020.6
20260902220507 70 186 2.0 4.0 0.00 0.02 0.00 83 1020.6
20260902220015 70 163 2.0 4.0 0.00 0.02 0.00 83 1020.6
20260902215508 70 178 1.0 4.0 0.00 0.02 0.00 84 1020.6
20260902215010 70 221 1.0 5.0 0.00 0.02 0.00 84 1020.5
20260902214546 70 137 1.0 5.0 0.00 0.02 0.00 84 1020.3
20260902214012 70 153 2.0 4.0 0.00 0.02 0.00 84 1020.3
20260902213513 70 178 0.0 3.0 0.00 0.02 0.00 84 1020.5
20260902213026 70 178 1.0 3.0 0.00 0.02 0.00 84 1020.5
20260902212517 70 334 1.0 3.0 0.00 0.02 0.00 84 1020.4
20260902212017 70 178 0.0 4.0 0.00 0.02 0.00 83 1020.4
20260902211531 70 205 2.0 4.0 0.00 0.02 0.00 83 1020.3
20260902211004 70 178 1.0 3.0 0.00 0.02 0.00 83 1020.3
20260902210503 71 178 1.0 4.0 0.00 0.02 0.00 82 1020.4
20260902210013 71 205 0.0 4.0 0.00 0.02 0.00 82 1020.4
20260902205505 71 227 1.0 4.0 0.00 0.02 0.00 82 1020.4
20260902205007 71 193 2.0 4.0 0.00 0.02 0.00 83 1020.4
20260902204514 71 205 1.0 3.0 0.00 0.02 0.00 80 1020.4
20260902204014 71 221 0.0 4.0 0.00 0.02 0.00 81 1020.4
20260902203512 71 72 0.0 6.0 0.00 0.02 0.00 81 1020.3
20260902203021 71 171 2.0 6.0 0.00 0.02 0.00 81 1020.2
20260902202517 71 213 1.0 4.0 0.00 0.02 0.00 80 1020.2
20260902202015 71 193 2.0 5.0 0.00 0.02 0.00 81 1020.3
20260902201536 70 236 2.0 5.0 0.00 0.02 0.00 80 1020.3
20260902201012 70 225 3.0 4.0 0.00 0.02 0.00 81 1020.6
20260902200514 70 225 0.0 5.0 0.00 0.02 0.00 81 1020.6
20260902200008 70 188 3.0 5.0 0.00 0.02 0.00 80 1020.9
20260902195507 71 265 1.0 4.0 0.00 0.02 0.00 79 1021.0
20260902195005 71 205 2.0 7.0 0.00 0.02 0.00 79 1021.0
20260902194517 71 212 2.0 9.0 0.00 0.02 0.00 79 1020.9
20260902194009 71 243 5.0 9.0 0.00 0.02 0.00 78 1020.9
20260902193510 71 238 2.0 8.0 0.00 0.02 0.00 79 1020.8
20260902193022 71 178 5.0 10.0 0.00 0.02 0.00 77 1020.9
20260902192508 71 211 5.0 10.0 0.00 0.02 0.00 78 1020.9
20260902192016 71 187 3.0 8.0 0.00 0.02 0.00 78 1020.9
20260902191527 70 195 3.0 9.0 0.00 0.02 0.00 79 1020.9
20260902191012 70 231 4.0 10.0 0.00 0.02 0.00 78 1021.2
20260902190515 71 334 3.0 10.0 0.00 0.02 0.00 79 1021.2
20260902190029 71 212 2.0 5.0 0.00 0.02 0.00 79 1021.2
20260902185516 70 265 2.0 5.0 0.00 0.02 0.00 79 1021.3
20260902185019 70 171 2.0 4.0 0.00 0.02 0.00 78 1021.4
20260902184512 70 209 0.0 3.0 0.00 0.02 0.00 79 1021.6
20260902184007 70 178 1.0 5.0 0.00 0.02 0.00 79 1021.5
20260902183507 70 123 2.0 6.0 0.00 0.02 0.00 79 1021.5
20260902183018 70 209 2.0 6.0 0.00 0.02 0.00 78 1021.5
20260902182509 70 265 1.0 5.0 0.00 0.02 0.00 79 1021.5
20260902182008 70 257 2.0 5.0 0.00 0.02 0.00 79 1021.4
20260902181523 70 201 2.0 6.0 0.00 0.02 0.00 80 1021.4
20260902181013 70 319 1.0 6.0 0.00 0.02 0.00 79 1021.4
20260902180521 70 252 2.0 7.0 0.00 0.02 0.00 79 1021.3
20260902180031 70 205 4.0 10.0 0.00 0.03 0.00 78 1021.4
20260902175518 70 212 2.0 11.0 0.00 0.03 0.00 79 1021.5
20260902175017 70 190 5.0 11.0 0.00 0.03 0.00 79 1021.5
20260902174543 70 208 5.0 11.0 0.00 0.03 0.00 79 1021.4
20260902174013 70 186 3.0 7.0 0.00 0.04 0.00 80 1021.3
20260902173516 70 234 3.0 8.0 0.00 0.04 0.00 80 1021.4
20260902173032 69 236 4.0 8.0 0.00 0.04 0.00 79 1021.5
20260902172511 69 198 1.0 6.0 0.00 0.04 0.00 80 1021.6
20260902172013 69 186 2.0 6.0 0.00 0.04 0.00 79 1021.7
20260902171517 69 232 2.0 7.0 0.00 0.05 0.00 79 1021.6
20260902171011 69 85 3.0 7.0 0.00 0.05 0.00 80 1021.6
20260902170509 69 165 2.0 10.0 0.00 0.05 0.00 80 1021.7
20260902170033 69 194 5.0 10.0 0.00 0.05 0.00 80 1021.7
20260902165512 69 225 5.0 8.0 0.00 0.05 0.00 81 1021.9
20260902165015 68 227 3.0 7.0 0.00 0.05 0.00 81 1021.9
20260902164543 68 178 3.0 7.0 0.00 0.05 0.00 80 1021.9
20260902164003 68 227 4.0 8.0 0.00 0.05 0.00 81 1021.9
20260902163503 68 205 5.0 8.0 0.00 0.06 0.00 81 1022.0
20260902163009 68 161 3.0 7.0 0.00 0.06 0.00 81 1022.0
20260902162504 68 178 1.0 8.0 0.00 0.06 0.00 81 1021.9
20260902162008 68 213 4.0 8.0 0.00 0.06 0.00 82 1022.0
20260902161523 68 124 3.0 10.0 0.00 0.06 0.00 81 1022.1
20260902161020 68 309 3.0 10.0 0.00 0.07 0.00 82 1022.1
20260902160513 68 238 3.0 8.0 0.00 0.08 0.00 82 1022.0
20260902160033 68 202 5.0 8.0 0.00 0.09 0.00 82 1022.2
20260902155510 68 249 2.0 5.0 0.00 0.10 0.00 82 1022.3
20260902155014 68 165 2.0 5.0 0.00 0.10 0.00 83 1022.3
20260902154529 67 196 2.0 5.0 0.00 0.10 0.00 84 1022.4
20260902154012 67 200 2.0 5.0 0.00 0.11 0.00 82 1022.5
20260902153515 67 200 2.0 7.0 0.00 0.12 0.00 83 1022.5
20260902153033 67 221 4.0 7.0 0.00 0.14 0.00 83 1022.7
20260902152516 67 265 2.0 8.0 0.00 0.16 0.00 84 1022.5
20260902152006 67 169 4.0 8.0 0.00 0.16 0.00 83 1022.6
20260902151512 67 236 3.0 5.0 0.00 0.16 0.00 84 1022.7
20260902151005 67 171 3.0 6.0 0.00 0.16 0.00 84 1022.8
20260902150510 67 217 2.0 6.0 0.00 0.16 0.00 84 1022.9
20260902150033 67 200 4.0 6.0 0.00 0.16 0.00 84 1022.9
20260902145511 67 221 2.0 6.0 0.00 0.16 0.00 84 1022.9
20260902145015 67 119 1.0 6.0 0.00 0.16 0.00 84 1023.0
20260902144529 67 255 2.0 4.0 0.00 0.16 0.00 84 1022.8
20260902144014 67 178 2.0 8.0 0.00 0.16 0.00 85 1022.8
20260902143514 67 146 2.0 9.0 0.00 0.16 0.00 84 1022.8
20260902143030 67 279 3.0 9.0 0.00 0.16 0.00 84 1022.7
20260902142516 67 294 4.0 9.0 0.00 0.16 0.00 83 1022.7
20260902142013 67 219 4.0 9.0 0.00 0.16 0.00 84 1022.7
20260902141535 67 203 3.0 9.0 0.00 0.16 0.00 84 1022.6
20260902141018 67 237 6.0 9.0 0.00 0.16 0.00 83 1022.5
20260902140507 67 236 5.0 11.0 0.00 0.16 0.00 83 1022.5
20260902140017 66 242 6.0 11.0 0.00 0.16 0.00 84 1022.5
20260902135514 66 223 3.0 7.0 0.00 0.16 0.00 85 1022.4
20260902135011 66 221 3.0 7.0 0.00 0.16 0.00 85 1022.5
20260902134523 66 250 4.0 7.0 0.00 0.16 0.00 86 1022.4
20260902134012 66 51 1.0 6.0 0.00 0.16 0.00 86 1022.6
20260902133519 66 196 2.0 6.0 0.00 0.16 0.00 87 1022.4
20260902133033 66 171 2.0 10.0 0.00 0.16 0.00 85 1022.3
20260902132515 66 242 2.0 10.0 0.00 0.16 0.00 86 1022.0
20260902132016 65 196 4.0 8.0 0.00 0.16 0.00 86 1022.0
20260902131528 65 231 2.0 5.0 0.00 0.16 0.00 89 1022.1
20260902131016 65 205 2.0 5.0 0.00 0.16 0.00 89 1022.0
20260902130516 65 221 2.0 5.0 0.00 0.16 0.00 89 1022.1
20260902130033 65 9 2.0 4.0 0.00 0.16 0.00 90 1022.1
20260902125520 65 212 2.0 4.0 0.00 0.16 0.00 90 1022.1
20260902125017 64 221 1.0 4.0 0.00 0.16 0.00 90 1022.2
20260902124518 65 205 2.0 4.0 0.00 0.16 0.00 91 1022.2
20260902124008 64 205 1.0 4.0 0.00 0.16 0.00 91 1022.2
20260902123511 64 193 2.0 5.0 0.00 0.16 0.00 91 1022.1
20260902123026 64 137 1.0 5.0 0.00 0.16 0.00 92 1022.1
20260902122514 64 232 1.0 2.0 0.00 0.16 0.00 93 1022.2
20260902122011 63 9 0.0 2.0 0.00 0.16 0.00 93 1022.2
20260902121527 63 153 0.0 3.0 0.00 0.16 0.00 94 1022.1
20260902121017 63 205 1.0 3.0 0.00 0.16 0.00 94 1022.0
20260902120516 63 102 0.0 3.0 0.00 0.17 0.00 94 1022.1
20260902120033 63 254 1.0 2.0 0.00 0.17 0.00 95 1022.2
20260902115521 63 221 0.0 2.0 0.00 0.17 0.00 94 1022.2
20260902115016 63 67 0.0 2.0 0.00 0.17 0.00 95 1022.3
20260902114539 63 51 1.0 2.0 0.00 0.18 0.00 94 1022.2
20260902114014 63 205 0.0 3.0 0.00 0.18 0.00 95 1022.2
20260902113519 62 205 1.0 3.0 0.00 0.19 0.00 95 1022.2
20260902113022 62 221 1.0 3.0 0.00 0.20 0.00 94 1022.2
20260902112513 62 51 1.0 4.0 0.00 0.21 0.00 94 1022.3
20260902112013 62 221 1.0 4.0 0.00 0.23 0.00 94 1022.5
20260902111524 62 51 1.0 3.0 0.00 0.25 0.00 94 1022.5
20260902111019 62 214 1.0 2.0 0.00 0.26 0.00 94 1022.4
20260902110513 62 193 1.0 2.0 0.00 0.28 0.00 94 1022.3
20260902110028 62 178 0.0 2.0 0.00 0.30 0.00 94 1022.4
20260902105516 62 178 0.0 2.0 0.00 0.31 0.00 94 1022.3
20260902105021 62 51 0.0 2.0 0.00 0.32 0.00 94 1022.3
20260902104539 62 221 0.0 2.0 0.00 0.34 0.00 94 1022.2
20260902104019 62 238 0.0 2.0 0.00 0.35 0.00 94 1022.1
20260902103524 62 196 1.0 2.0 0.00 0.36 0.00 94 1022.1
20260902103032 62 238 0.0 2.0 0.00 0.37 0.00 94 1022.2
20260902102517 62 238 0.0 2.0 0.00 0.37 0.00 94 1022.1
20260902102019 62 265 0.0 2.0 0.00 0.37 0.00 94 1022.0
20260902101537 62 238 0.0 2.0 0.00 0.38 0.00 94 1022.0
20260902101016 62 9 0.0 2.0 0.00 0.38 0.00 94 1021.9
20260902100503 62 291 0.0 2.0 0.00 0.38 0.00 94 1021.8
20260902100007 62 9 0.0 2.0 0.00 0.38 0.00 94 1021.7
20260902095505 62 334 0.0 2.0 0.00 0.38 0.00 94 1021.8
20260902095004 62 51 0.0 1.0 0.00 0.38 0.00 94 1021.6
20260902094510 62 221 0.0 1.0 0.00 0.38 0.00 94 1021.7
20260902094007 62 9 0.0 3.0 0.00 0.38 0.00 94 1021.7
20260902093508 62 51 0.0 3.0 0.00 0.38 0.00 94 1021.7
20260902093024 62 9 1.0 2.0 0.00 0.38 0.00 94 1021.7
20260902092507 62 41 1.0 3.0 0.00 0.38 0.00 94 1021.7
20260902092011 62 9 1.0 3.0 0.00 0.38 0.00 94 1021.6
20260902091526 63 93 0.0 2.0 0.00 0.38 0.00 94 1021.6
20260902091012 62 265 0.0 1.0 0.00 0.38 0.00 94 1021.6
20260902090503 63 93 0.0 1.0 0.00 0.38 0.00 94 1021.4
20260902090005 63 265 0.0 1.0 0.00 0.38 0.00 94 1021.4
20260902085502 63 265 0.0 3.0 0.00 0.38 0.00 94 1021.4
20260902085004 63 265 0.0 3.0 0.00 0.38 0.00 94 1021.3
20260902084507 63 316 1.0 3.0 0.00 0.38 0.00 94 1021.2
20260902084004 63 338 1.0 3.0 0.00 0.38 0.00 94 1021.1
20260902083504 63 44 0.0 2.0 0.00 0.38 0.00 94 1021.2
20260902083010 63 51 0.0 2.0 0.00 0.38 0.00 94 1021.1
20260902082506 63 137 0.0 2.0 0.00 0.38 0.00 94 1021.2
20260902082009 63 51 0.0 2.0 0.00 0.38 0.00 94 1021.3
20260902081528 63 93 0.0 2.0 0.00 0.38 0.00 94 1021.2
20260902081017 63 216 0.0 2.0 0.00 0.38 0.00 94 1021.2
20260902080513 63 232 1.0 3.0 0.00 0.38 0.00 94 1021.2
20260902080027 63 232 1.0 3.0 0.00 0.38 0.00 94 1021.3
20260902075515 63 165 1.0 4.0 0.00 0.38 0.00 94 1021.3
20260902075002 63 178 1.0 4.0 0.00 0.38 0.00 94 1021.4
20260902074507 63 51 1.0 3.0 0.00 0.38 0.00 94 1021.4
20260902074003 63 221 1.0 2.0 0.00 0.38 0.00 94 1021.4
20260902073506 63 51 0.0 2.0 0.00 0.38 0.00 94 1021.3
20260902073010 63 93 1.0 2.0 0.00 0.38 0.00 94 1021.3
20260902072508 63 93 0.0 2.0 0.00 0.38 0.00 94 1021.4